Location: Passau
(48.5830°N, 13.4830°E)
Time: 10:10:59
(UTC+01:00)

NOAA 19 - Pass Details

Date: 06 December 2021
Orbit: 841 x 860 km, 99.2° (Epoch: 26 January)

Event Time Altitude Azimuth Distance (km) Brightness Sun altitude
Rises 17:29:53 0° 129° (SE) 3,389 8.0 -12.4°
Reaches altitude 10° 17:32:30 10° 119° (ESE) 2,460 7.2 -12.8°
Maximum altitude 17:37:08 30° 61° (ENE) 1,491 5.9 -13.5°
Drops below altitude 10° 17:41:48 10° 2° (N) 2,481 7.4 -14.3°
Sets 17:44:26 0° 352° (N) 3,424 8.3 -14.7°
